SCP
0 0 0 0 0 0 0 0 0 0 0 0 0 0 0 0 0 0 0 0 0 0 0 0 0 0 0 0 0 0 0 0 0 0 0 0 0 0 0 0 0 0 0 0 0 0 0 0 0
0 0 0 0 0 0 0 0 0 0 0 0 0 0 0 0 0 0 0 0 0 0 0 0 1 1 0 0 0 0 0 0 0 0 0 0 0 0 0 0 0 0 0 0 0 0 0 0 0
0 0 0 0 0 0 0 0 0 0 0 0 0 0 0 0 0 0 0 0 0 0 0 1 1 1 1 0 0 0 0 0 0 0 0 0 0 0 0 0 0 0 0 0 0 0 0 0 0
0 0 0 0 0 0 0 0 0 0 0 0 0 0 0 0 0 0 0 1 1 1 1 1 1 1 1 1 0 0 0 0 0 0 0 0 0 0 0 0 0 0 0 0 0 0 0 0 0
0 0 0 0 0 0 0 0 0 0 0 0 0 0 0 0 0 1 1 1 1 1 1 1 1 1 1 1 0 0 0 0 0 0 0 0 0 0 0 0 0 0 0 0 0 0 0 0 0
0 0 0 0 0 0 0 0 0 0 0 0 0 0 0 0 1 1 1 1 1 1 1 1 1 1 1 1 0 0 0 0 0 0 0 0 0 0 0 0 0 0 0 0 0 0 0 0 0
0 0 0 0 0 0 0 0 0 0 0 0 0 0 0 0 1 1 1 1 1 1 1 1 1 1 1 1 0 0 0 0 0 0 0 0 0 0 0 0 0 0 0 0 0 0 0 0 0
0 0 0 0 0 0 0 0 0 0 0 0 0 0 0 1 1 1 1 1 1 1 1 1 1 1 1 0 0 0 0 0 0 0 0 0 0 0 0 0 0 0 0 0 0 0 0 0 0
0 0 0 0 0 0 0 0 0 0 0 0 0 0 0 1 1 1 1 1 1 1 1 1 1 1 1 0 0 0 0 0 0 0 0 0 0 0 0 0 0 0 0 0 0 0 0 0 0
0 0 0 0 0 0 0 0 0 0 0 0 0 0 1 1 1 1 1 1 1 1 1 1 1 1 1 0 0 0 0 0 0 0 0 0 0 0 0 0 0 0 0 0 0 0 0 0 0
0 0 0 0 0 0 0 0 0 0 0 0 0 1 1 1 1 1 1 1 1 1 1 1 1 1 0 0 0 0 0 0 0 0 0 0 0 0 0 0 0 0 0 0 0 0 0 0 0
0 0 0 0 0 0 0 0 0 0 0 0 0 1 1 1 1 1 1 1 1 1 1 1 1 0 0 0 0 0 0 0 0 0 0 0 0 0 0 0 0 0 0 0 0 0 0 0 0
0 0 0 0 0 -0 0 0 0 0 0 0 0 1 1 1 1 1 1 1 1 1 1 1 0 0 0 0 0 0 0 0 0 0 0 0 0 0 0 0 0 0 0 0 0 0 0 0 0
0 0 0 0 -0 -0 0 0 0 0 0 0 0 1 1 1 1 1 1 1 1 1 1 1 0 0 0 0 0 0 0 0 0 0 0 0 0 0 0 0 0 0 0 0 0 0 0 0 0
0 0 0 0 -0 -0 0 0 0 0 0 0 0 0 0 0 0 1 1 1 1 1 1 1 0 0 0 0 0 0 0 0 0 0 0 0 0 0 0 0 0 0 0 0 0 0 0 0 0
0 0 0 0 0 0 0 0 0 0 0 0 0 0 0 0 0 0 0 0 0 0 1 0 0 0 0 0 0 0 0 0 0 0 0 0 0 0 0 0 0 0 0 0 0 0 0 0 0
0 0 0 0 0 0 0 0 0 0 0 0 0 0 0 0 0 0 0 0 0 0 0 0 0 0 0 0 0 0 0 0 0 0 0 0 0 0 0 0 0 0 0 0 0 0 0 0 0
0 0 0 0 0 0 0 0 0 0 0 0 0 0 0 0 0 0 0 0 0 0 0 0 0 0 0 0 0 0 0 0 0 0 0 0 0 0 0 0 0 0 0 0 0 0 0 0 0
0 0 0 0 0 0 0 0 0 0 0 0 0 0 0 0 0 0 0 0 0 0 0 0 0 0 0 0 0 0 0 0 0 0 0 0 0 0 0 0 0 0 0 0 0 0 0 0 0
0 0 0 0 0 0 0 0 0 0 0 0 0 0 0 0 0 0 0 0 0 0 0 0 0 0 0 0 0 0 0 0 0 0 0 0 0 0 0 0 0 0 0 0 0 0 0 0 0
0 0 0 0 0 0 0 0 0 0 0 0 0 0 0 0 0 0 0 0 0 0 0 0 0 0 0 0 0 0 0 0 0 0 0 0 0 0 0 0 0 0 0 0 0 0 0 0 0
0 0 0 0 0 0 0 0 0 0 0 0 0 0 0 0 0 0 0 0 0 0 0 0 0 0 0 0 0 0 0 0 0 0 0 0 0 0 0 0 0 0 0 0 0 0 0 0 0
0 0 0 0 0 0 0 0 0 0 0 0 0 0 0 0 0 0 0 0 0 0 0 0 0 0 0 0 0 0 0 0 0 0 0 0 0 0 0 0 0 0 0 0 0 0 0 0 0
0 0 0 0 0 0 0 0 0 0 0 0 0 0 0 0 0 0 0 0 0 0 0 0 0 0 0 0 0 0 0 0 0 0 0 0 0 0 0 0 0 0 0 0 0 0 0 0 0
0 0 0 0 0 0 0 0 0 0 0 0 0 0 0 0 0 0 0 0 0 0 0 0 0 0 0 0 0 0 0 0 0 0 0 0 0 0 0 0 0 0 0 0 0 0 0 0 0
0 0 0 0 0 0 -0 -0 -0 -0 0 0 0 0 0 0 0 0 0 0 0 0 0 0 0 0 0 0 0 0 0 0 0 0 0 0 0 0 0 0 0 0 0 0 0 0 0 0 0
0 0 0 0 0 0 0 -0 -0 -0 0 0 0 0 0 0 0 0 0 0 0 0 0 0 0 0 0 0 0 0 0 0 0 0 0 0 0 0 0 0 0 0 0 0 0 0 0 0 0
0 0 0 0 0 0 0 0 -0 0 0 0 0 0 0 0 0 0 0 0 0 0 0 0 0 0 0 0 0 0 0 0 0 0 0 0 0 0 0 0 0 0 0 0 0 0 0 0 0
0 0 0 0 0 0 0 0 0 0 0 0 0 0 0 0 0 0 0 0 0 0 0 0 0 0 0 0 0 0 0 0 0 0 0 0 0 0 0 0 0 0 0 0 0 0 0 0 0
0 0 0 0 0 0 0 0 0 0 0 0 0 0 0 0 0 0 0 0 0 0 0 0 0 0 0 0 0 0 0 0 0 0 0 0 0 0 0 0 0 0 0 0 0 0 0 0 0
Wind_Speed
5 3 2 4 5 3 4 6 4 2 1 1 1 6 7 5 4 5 3 9 12 12 11 14 15 15 15 15 15 14 14 14 14 14 14 14 14 14 13 13 13 13 13 13 13 13 13 13 13
2 1 3 4 5 2 6 6 5 5 4 3 3 5 6 4 3 7 6 10 14 12 11 12 15 15 15 15 15 15 14 14 14 13 13 13 13 13 13 13 13 13 13 13 12 12 12 12 12
2 1 3 4 4 6 6 5 6 3 2 2 3 4 5 4 4 5 8 14 13 11 9 12 15 16 16 15 15 15 14 14 14 13 13 13 13 13 13 13 12 12 12 12 12 12 12 11 11
2 3 3 3 6 7 6 3 3 2 1 1 4 5 3 1 3 7 13 14 14 10 9 12 15 16 15 15 15 14 14 14 13 13 13 13 13 12 12 12 12 12 12 11 11 11 11 10 10
2 3 3 3 6 6 5 4 2 2 1 1 5 5 2 4 7 14 14 14 14 11 9 11 15 15 15 15 14 14 14 13 13 13 12 12 12 12 12 11 11 11 11 10 10 10 10 9 10
2 3 4 5 6 5 4 4 1 1 2 2 5 5 1 1 9 12 12 12 12 12 10 10 14 15 14 14 14 13 13 13 13 12 12 12 12 12 11 11 11 10 10 10 10 9 9 9 9
3 4 5 5 4 4 5 3 3 3 2 3 6 7 3 2 6 10 11 11 11 10 9 8 8 10 13 13 13 12 12 12 12 12 11 11 11 11 11 10 10 10 9 9 9 8 8 8 8
3 3 3 4 5 5 3 1 2 4 3 1 5 9 7 6 7 10 11 10 10 9 9 8 7 7 7 8 11 11 11 11 11 11 10 10 9 9 9 9 9 9 8 8 8 7 7 7 6
2 2 5 5 5 4 2 1 1 0 4 3 2 4 6 10 11 12 10 9 8 9 8 8 7 7 6 6 8 9 9 9 9 8 10 8 4 4 5 6 8 8 8 7 7 6 6 5 5
3 5 7 4 3 2 1 1 1 2 3 3 4 5 8 11 13 13 13 12 10 10 8 7 8 7 6 6 5 4 4 5 4 4 5 4 3 3 4 5 7 7 6 6 5 5 4 3 2
5 6 4 3 2 1 1 2 1 4 2 4 7 9 10 10 10 11 11 11 11 10 9 8 8 7 6 5 4 3 2 3 4 4 4 4 3 2 2 2 2 3 3 2 3 2 1 1 1
3 4 3 2 2 1 1 2 3 1 3 4 9 13 11 11 10 10 10 9 8 9 8 8 8 7 6 5 4 4 3 3 3 4 4 4 3 2 2 2 2 2 1 2 1 1 1 1 0
4 2 2 2 1 1 2 1 1 2 1 4 7 10 11 10 8 7 7 8 8 8 8 8 8 8 7 6 4 4 4 4 4 4 4 4 4 4 3 2 2 2 2 2 2 1 1 1 0
4 2 2 3 2 1 1 2 1 2 1 6 8 8 8 8 8 6 6 7 7 8 8 7 8 7 7 5 5 4 4 4 4 3 4 4 4 4 3 3 2 2 2 2 2 2 1 1 0
2 1 3 3 2 1 2 3 2 2 3 4 5 5 5 5 5 6 7 7 8 8 7 7 8 7 7 6 5 4 4 4 3 3 4 4 4 4 4 3 3 2 2 2 2 2 1 1 1
2 2 2 4 3 2 4 5 4 1 4 3 3 3 4 3 4 4 5 5 6 6 7 7 6 6 6 6 5 4 3 4 3 3 3 4 4 4 3 3 3 3 2 2 2 2 1 1 1
3 4 5 3 3 3 4 4 5 1 3 3 3 3 3 2 1 2 3 5 6 6 7 6 6 6 6 5 5 4 4 3 3 3 3 3 4 4 3 3 3 3 3 2 2 2 2 1 1
6 5 4 4 2 3 3 4 4 2 3 4 3 2 3 3 4 3 3 3 4 5 5 6 5 5 5 4 3 3 3 2 2 2 3 4 3 4 4 2 3 3 3 2 2 2 1 1 1
4 4 3 4 2 3 4 4 5 4 1 2 3 3 3 3 2 2 3 3 4 4 5 5 6 5 5 4 4 3 3 2 2 2 3 4 4 4 4 3 2 3 3 3 3 2 2 1 1
3 3 2 1 1 2 3 5 5 3 3 4 5 5 4 2 1 2 2 3 4 4 4 5 5 5 4 4 3 2 3 2 2 2 2 3 3 3 3 4 3 3 3 3 3 2 2 1 1
3 4 4 2 1 1 2 4 4 3 1 1 2 3 4 4 4 3 2 2 3 3 4 4 4 4 4 4 4 4 3 2 1 1 1 2 3 3 3 3 3 2 3 3 3 3 3 2 1
3 3 4 3 2 1 2 3 6 4 2 2 2 2 2 3 3 3 3 2 3 3 3 3 4 4 3 4 5 7 5 4 3 2 2 2 2 3 3 3 3 2 2 3 3 2 2 3 2
3 3 3 3 3 0 1 3 6 2 4 4 3 3 3 3 4 4 3 3 2 2 3 3 4 4 3 4 5 6 4 3 2 2 3 2 2 2 3 3 3 2 2 2 3 2 2 2 2
2 4 5 4 3 3 5 4 6 4 6 5 4 3 3 2 3 3 2 2 2 2 2 2 3 3 3 4 4 5 6 5 5 4 3 2 1 1 2 3 3 2 2 2 2 3 3 2 2
3 5 2 1 1 5 3 4 7 4 4 6 6 5 3 2 3 3 3 3 2 2 2 2 3 3 3 3 3 4 4 5 6 5 4 3 2 1 2 2 3 2 2 2 2 2 2 2 2
2 5 5 5 5 2 2 5 6 3 2 2 3 3 3 2 2 2 3 3 3 2 2 2 3 3 3 3 3 3 3 2 2 3 3 3 3 2 3 3 3 2 2 2 2 2 2 2 2
3 2 2 3 1 1 3 4 5 2 1 1 2 3 2 2 2 2 2 2 2 2 2 2 2 2 3 3 3 3 3 3 2 2 2 2 2 2 3 3 3 3 2 2 2 2 2 2 1
2 3 3 3 4 2 3 4 4 3 2 1 1 2 1 1 2 1 1 2 1 1 1 1 2 2 2 3 3 2 2 3 3 3 3 2 2 2 3 3 3 2 2 2 2 2 2 2 1
1 2 1 2 3 4 3 6 3 4 4 4 3 2 1 1 1 1 1 1 1 2 2 2 2 2 2 2 2 3 2 2 3 3 2 2 2 2 3 3 3 2 2 2 2 2 2 2 1
2 3 3 3 2 2 2 5 3 1 1 2 2 1 1 2 2 2 2 2 2 2 2 2 1 2 2 2 3 3 2 3 3 3 2 2 2 2 2 2 2 2 2 2 2 2 2 2 1
Wind_Direction
319 347 62 61 63 66 228 242 236 246 220 223 107 105 113 113 141 154 129 135 134 141 145 143 140 137 133 129 126 123 119 116 114 113 112 112 111 110 108 106 102 99 96 94 92 90 91 90 90
354 8 62 68 105 168 249 241 231 226 199 162 102 92 87 81 87 110 124 141 138 140 141 142 141 138 135 131 128 126 123 120 118 117 115 114 113 112 109 107 104 100 97 95 94 94 93 90 88
345 92 94 96 155 189 223 229 220 249 248 153 87 70 103 124 125 129 144 141 134 136 138 140 139 138 136 133 131 128 125 124 122 120 118 116 116 113 111 109 106 102 99 98 97 96 94 91 86
70 65 69 117 215 222 219 231 205 197 307 73 108 75 65 68 157 135 137 136 132 133 136 141 139 137 136 135 134 131 129 127 126 123 121 119 118 115 113 110 108 106 104 102 100 98 95 90 86
72 98 119 212 232 245 239 251 229 191 187 104 109 100 45 345 114 126 135 136 135 135 137 142 139 139 137 135 136 135 133 131 129 128 125 123 121 117 114 111 109 108 108 106 103 100 96 89 84
91 102 149 212 232 253 254 247 206 185 190 124 109 108 101 64 123 133 136 137 138 138 138 142 140 139 138 138 136 137 137 136 134 132 129 127 124 122 120 116 113 110 109 108 106 102 96 87 83
142 144 186 201 218 246 250 236 188 179 173 180 135 114 128 154 140 135 134 132 133 135 136 137 138 138 139 138 137 136 137 138 136 132 129 127 126 125 124 120 119 117 114 113 110 107 99 90 84
160 143 195 206 198 229 250 214 194 168 183 153 123 137 167 182 141 125 125 126 131 134 138 138 135 135 136 138 137 136 134 135 135 130 127 125 124 123 121 120 121 120 119 119 115 111 102 92 83
137 149 204 204 193 223 244 187 298 155 108 60 63 153 160 144 131 125 125 126 136 142 144 143 140 138 136 138 140 135 133 131 130 129 126 120 116 118 120 123 124 125 124 122 118 113 102 90 79
157 195 215 214 205 228 284 200 220 89 78 62 52 64 113 131 137 142 147 150 153 156 155 151 147 146 143 142 133 132 130 128 125 131 133 127 123 121 121 124 127 126 123 121 118 113 98 82 67
180 200 217 260 281 306 353 339 340 128 145 177 155 144 138 136 143 152 157 159 160 158 156 157 154 151 147 142 142 138 132 131 131 134 140 134 122 116 111 117 118 120 116 108 103 94 86 93 95
194 227 226 263 309 5 351 353 11 91 193 179 160 151 147 150 156 161 161 162 159 157 158 158 157 153 151 147 149 148 147 147 146 148 145 143 137 134 140 136 139 134 131 124 115 118 116 108 118
216 231 241 258 324 11 36 15 8 311 260 132 138 144 155 162 163 161 160 160 157 161 161 161 159 158 155 151 157 155 158 158 158 155 154 151 151 152 151 151 149 148 140 141 141 137 132 124 122
204 227 267 276 265 283 112 321 28 272 113 124 138 155 162 167 163 154 158 164 166 166 164 163 160 160 155 156 159 161 162 159 156 159 162 157 156 159 157 156 157 160 158 156 156 156 154 164 138
165 212 302 267 218 203 109 307 243 231 108 125 149 160 160 161 155 164 169 167 169 168 164 165 163 158 155 158 163 160 160 155 157 159 159 159 156 161 160 158 162 171 162 150 142 135 116 110 98
141 151 228 256 195 182 134 243 262 245 132 154 175 171 161 166 162 162 158 155 155 155 158 164 163 156 157 155 155 151 153 151 153 152 150 156 161 158 156 158 170 171 153 144 140 133 123 115 113
151 188 206 252 199 150 151 228 268 257 150 177 191 180 169 169 178 168 160 158 158 157 157 155 151 154 157 152 149 149 148 147 146 143 144 150 155 154 151 163 161 152 139 139 144 126 133 138 137
183 177 184 205 197 135 168 227 271 277 183 194 193 187 179 183 208 184 157 146 144 144 145 145 141 146 148 141 128 127 131 138 137 144 149 146 149 151 147 145 153 150 141 140 140 136 115 132 145
154 151 196 222 195 146 191 229 256 269 243 209 190 186 185 197 211 151 135 131 125 129 137 147 145 148 145 148 151 149 155 156 150 157 150 148 148 148 145 144 153 156 157 163 156 141 123 88 99
147 155 193 273 116 163 201 251 254 247 219 196 187 192 194 188 104 115 118 120 136 147 153 152 154 158 160 162 159 151 144 149 154 150 141 144 147 148 144 146 151 159 150 147 151 143 140 120 111
193 176 187 194 20 56 104 295 270 272 249 219 192 190 183 178 177 164 141 137 138 148 162 164 163 160 158 143 127 110 92 84 102 138 146 154 153 149 141 142 144 142 151 161 168 159 152 163 173
219 190 180 162 122 249 156 245 269 251 261 245 230 196 189 182 159 151 154 155 160 173 164 153 152 148 146 141 147 150 155 167 184 174 162 150 146 140 134 135 138 139 148 160 171 162 156 154 171
201 181 153 154 137 69 240 198 271 248 235 236 231 212 201 186 160 158 169 173 162 150 149 147 144 143 146 145 156 159 154 154 139 139 140 132 119 123 124 127 126 129 140 157 151 144 148 159 167
120 85 60 52 93 226 216 192 263 232 217 217 221 213 201 172 152 149 143 119 95 98 111 130 139 138 143 147 150 153 154 152 145 151 155 149 134 121 120 122 127 134 139 156 156 152 152 159 155
89 107 97 93 195 235 196 194 248 246 224 212 208 206 193 156 141 131 119 112 112 119 124 137 141 140 141 147 150 151 154 158 165 167 165 159 158 164 166 143 142 144 150 154 151 143 147 152 151
190 147 159 180 197 246 189 216 249 265 252 218 183 169 149 143 143 145 150 146 144 146 139 139 146 147 146 150 155 143 143 150 160 160 159 166 171 178 167 151 147 148 146 137 147 139 148 142 152
150 183 171 132 116 176 239 269 295 322 8 59 102 117 126 134 127 119 131 127 137 142 154 159 154 149 149 149 147 141 141 142 140 139 135 148 149 145 148 149 144 139 139 141 144 143 153 146 155
138 147 111 130 154 213 249 242 238 247 234 207 157 139 124 100 86 91 120 131 129 144 135 125 138 149 146 139 145 142 143 138 132 127 132 139 139 128 132 138 136 133 131 132 136 138 148 144 148
83 110 120 141 161 165 217 259 246 228 215 194 187 161 138 115 93 99 111 128 112 91 95 104 109 107 113 123 126 125 131 127 122 124 133 141 136 133 130 137 134 132 133 130 132 146 147 149 132
161 167 148 154 227 192 191 265 318 308 274 155 136 120 98 81 71 80 75 72 80 84 90 94 102 112 119 127 125 125 124 125 128 131 132 129 118 115 119 119 126 129 131 133 151 159 156 157 155